CROCUBE

Last updated on Mon Sep 21 2026 00:03:15 GMT+0000 (Coordinated Universal Time)

1 62394U 24247T 26263.18876308 .00039307 00000+0 56570-3 0 9990 2 62394 44.9694 81.3716 0010453 243.9717 116.0101 15.55383057 98104
UTC large
Height (km)
Speed (km/s)
/
Latitude / Longitude
Inclination (degrees)
Orbital Period (minutes)
Azimuth
Elevation
Range (km)
Doppler Factor

Next 0 passes for location: London (51.5072 / 0.1276)

No passes found over London.
CROCUBE